Location: *
(52.2090°N, 4.1550°W)
Time: 22:04:01
(UTC+00:00)

SL-16 R/B - Pass Details

Date: 19 July 2019
Orbit: 843 x 846 km, 71.0° (Epoch: 22 August)

Event Time Altitude Azimuth Distance (km) Brightness Sun altitude
Rises 21:19:56 0° 212° (SSW) 3,391 5.2 -6.9°
Reaches altitude 10° 21:22:22 10° 213° (SSW) 2,460 4.5 -7.1°
Maximum altitude 21:28:01 81° 301° (WNW) 861 2.4 -7.7°
Drops below altitude 10° 21:33:44 10° 30° (NNE) 2,478 4.9 -8.2°
Sets 21:36:12 0° 31° (NNE) 3,417 5.6 -8.5°
